AirNav   Phillips 66 Aviation Fuel
 
 397 users online  

28KY Brandon Airdrome
Murray, Kentucky, USA

GOING TO MURRAY?


FAA INFORMATION EFFECTIVE 23 MAY 2019

Location

FAA Identifier: 28KY
Lat/Long: 36-34-33.2000N / 088-18-48.1410W
36-34.553333N / 088-18.802350W
36.5758889 / -88.3133725
(estimated)
Elevation: 525 ft. / 160 m (estimated)
Variation: 01E (1985)
From city: 1 mile S of MURRAY, KY
Time zone: UTC -5 (UTC -6 during Standard Time)
Zip code: 42071

Airport Operations

Airport use: Private use. Permission required prior to landing
Activation date: 06/1978
Control tower: no
ARTCC: MEMPHIS CENTER
FSS: LOUISVILLE FLIGHT SERVICE STATION
Attendance: UNATNDD
Wind indicator: yes
Segmented circle: no

Airport Communications

WX AWOS-3 at CEY (6 nm NW): 119.975 (270-489-2424)
WX AWOS-3 at PHT (15 nm S): 118.825 (731-644-0451)
WX AWOS-3 at M25 (17 nm NW): 120.625 (270-247-2094)

Nearby radio navigation aids

VOR radial/distance  VOR name  Freq  Var
CNGr133/36.2CUNNINGHAM VOR/DME113.1003E

 
NDB name  Hdg/Dist  Freq  Var  ID
TRAINER014/20.241000ETIQ - .. --.-
HUNTINGDON016/30.221702WHZD .... --.. -..

Airport Services

Runway Information

Runway 1/19

Dimensions: 2100 x 80 ft. / 640 x 24 m
Surface: turf
RUNWAY 1  RUNWAY 19
Traffic pattern: leftleft

Airport Ownership and Management from official FAA records

Ownership: Privately-owned
Owner: H. BRANDON
701 SOUTH 12TH ST
MURRAY, KY 42071
Phone 270-753-4389
CELL- 270-293-8885
Manager: H. BRANDON
701 SOUTH 12TH ST
MURRAY, KY 42071
Phone 270-753-4389

Airport Operational Statistics

Aircraft based on the field: 90
Single engine airplanes: 90
    

Instrument Procedures

There are no published instrument procedures at 28KY.

Some nearby airports with instrument procedures:

KCEY - Kyle-Oakley Field Airport (6 nm NW)
KPHT - Henry County Airport (15 nm S)
M25 - Mayfield Graves County Airport (17 nm NW)
KHZD - Carroll County Airport (30 nm S)
KUCY - Everett-Stewart Regional Airport (35 nm W)
 
Loc | Ops | Rwys | IFR | FBO | Links
Com | Nav | Svcs | Stats | Notes
Area around 28KY (Brandon Airdrome)
 
Road maps at: MapQuest Bing Google
 
Aerial photo
No photo
 
Sectional chart

 
Airport distance calculator
Flying to Brandon Airdrome? Find the distance to fly.

From to 28KY

Sunrise and sunset
Times for 24-May-2019
 Local
(UTC-5)
 Zulu
(UTC)
Morning civil twilight05:1110:11
Sunrise05:4110:41
Sunset19:5900:59
Evening civil twilight20:2901:29

Current date and time
Zulu (UTC)  24-May-2019 10:15:55
Local (UTC-5)  24-May-2019 05:15:55
 
METAR
KCEY 
6nm NW 
240955Z AUTO 00000KT 10SM CLR 20/20 A3010 RMK AO1
KPHT 
15nm S 
240955Z AUTO 00000KT 10SM CLR 19/18 A3010 RMK A01
KM25 
17nm NW 
240955Z AUTO 17005KT 10SM CLR 21/18 A3011 RMK AO2 PWINO
TAF
KPAH 
37nm NW 
240520Z 2406/2506 VRB03KT P6SM SKC FM241400 22008KT P6SM FEW050 FM250000 19005KT P6SM FEW250
KHOP 
40nm E 
240800Z 2408/2514 VRB06KT 9999 SKC QNH3005INS BECMG 2414/2415 25010G15KT 9999 SCT050 QNH3010INS BECMG 2500/2501 20009KT 9999 FEW050 QNH3010INS WND 18006KT AFT 2503 TX31/2421Z TN20/2412Z
KCKV 
43nm E 
240521Z 2406/2506 00000KT P6SM SKC FM241500 22008KT P6SM FEW250
NOTAMs
Click for the latest NOTAMs
NOTAMs are issued by the DoD/FAA and will open in a separate window not controlled by AirNav.

 

 
 

Would you like to see your business listed on this page?

 If your business provides an interesting product or service to pilots, flight crews, aircraft, or users of the Brandon Airdrome, you should consider listing it here.  To start the listing process, click on the button below
 
Add a business
 

Other Pages about Brandon Airdrome

Update a link
 
Copyright © AirNav, LLC. All rights reserved. Privacy Policy  Contact